User: anonymous   Login
Location: Unspecified
(0.0000°N, 0.0000°E)
Time: 10:10:56
(UTC+00:00)
Language:

SDA-1678 - Orbit

View from above orbital plane
View from above orbital plane
View from above satellite
View from above satellite

Ground track
Ground track

The orbit is defined by the following mean orbital elements,

1 65988U          26145.36199294 +.00000000 +00000-0 +20851-3 0 00009
2 65988  81.3017 232.7063 0000392 236.7735 123.3384 13.84978653    06
Epoch (UTC): 25 May 2026 08:41:16
Eccentricity: 0.0000392
inclination: 81.3017°
perigee height: 946 km
apogee height: 947 km
right ascension of ascending node: 232.7063°
argument of perigee: 236.7735°
revolutions per day: 13.84978653
mean anomaly at epoch: 123.3384°

The dashed part of the orbit path shows where the satellite is in the earth's shadow,  

DLR